Location: Newark
(35.2672°N, 80.7344°W)
Time: 00:00:52
(UTC+00:00)

Vanguard 2 Rocket - Pass Details

Date: 20 January 2020
Orbit: 553 x 3327 km, 32.9° (Epoch: 24 February)

Event Time Altitude Azimuth Distance (km) Brightness Sun altitude
Rises 12:11:04 0° 251° (WSW) 3,137 9.2 -4.3°
Reaches altitude 10° 12:13:02 10° 248° (WSW) 2,396 8.6 -3.9°
Maximum altitude 12:18:35 67° 166° (SSE) 1,203 7.7 -2.9°
Drops below altitude 10° 12:28:23 10° 87° (E) 4,108 11.5 -1.1°
Sets 12:32:47 0° 85° (E) 5,576 12.1 -0.2°
